AFR616 TFFR-KMIA

Flight info

Callsign AFR616
Flight time 3h 1m
Altitude 36000
Route GORET2F GORET R888 MODUX/N0452F360 Y260 ACONY Y308 MADIZ VIICE2
Aircraft A320/M-SDE3FGHIRWY/LB1

Departure

Time 2026-05-08 18:30
Airport Maryse Condé International Airport (TFFR)

Arrival

Time 2026-05-08 21:32
Airport Miami International Airport (KMIA)
Time Latitude Longitude Altitude Speed Heading
2026-05-08 18:25 16.26820 -61.52713 31 ft 9 kts 275°
2026-05-08 18:25 16.26833 -61.52820 30 ft 22 kts 281°
2026-05-08 18:26 16.26822 -61.52917 29 ft 13 kts 226°
2026-05-08 18:26 16.26726 -61.52949 29 ft 19 kts 191°
2026-05-08 18:26 16.26597 -61.52976 28 ft 19 kts 188°
2026-05-08 18:26 16.26508 -61.53055 27 ft 18 kts 275°
2026-05-08 18:27 16.26535 -61.53189 27 ft 20 kts 283°
2026-05-08 18:27 16.26556 -61.53290 26 ft 22 kts 279°
2026-05-08 18:27 16.26597 -61.53517 26 ft 27 kts 279°
2026-05-08 18:27 16.26631 -61.53713 24 ft 27 kts 280°
2026-05-08 18:28 16.26669 -61.53904 21 ft 27 kts 282°
2026-05-08 18:28 16.26706 -61.54099 18 ft 27 kts 282°
2026-05-08 18:28 16.26739 -61.54290 16 ft 25 kts 278°
2026-05-08 18:28 16.26768 -61.54467 14 ft 24 kts 281°
2026-05-08 18:29 16.26801 -61.54635 12 ft 23 kts 282°
2026-05-08 18:29 16.26866 -61.54761 12 ft 15 kts 263°
2026-05-08 18:29 16.26818 -61.54735 12 ft 11 kts 99°
2026-05-08 18:29 16.26806 -61.54655 12 ft 14 kts 99°
2026-05-08 18:30 16.26751 -61.54349 17 ft 77 kts 99°
2026-05-08 18:30 16.26608 -61.53599 26 ft 132 kts 101°
2026-05-08 18:30 16.26402 -61.52513 132 ft 167 kts 102°
2026-05-08 18:30 16.26171 -61.51302 756 ft 176 kts 102°
2026-05-08 18:31 16.25948 -61.49989 1357 ft 191 kts 98°
2026-05-08 18:31 16.25668 -61.48605 2058 ft 197 kts 103°
2026-05-08 18:31 16.25360 -61.47175 2544 ft 210 kts 100°
2026-05-08 18:31 16.25071 -61.45598 2870 ft 235 kts 100°
2026-05-08 18:32 16.24764 -61.43854 3475 ft 253 kts 99°
2026-05-08 18:32 16.24593 -61.42018 4281 ft 258 kts 81°
2026-05-08 18:32 16.25344 -61.40324 5128 ft 265 kts 47°
2026-05-08 18:32 16.26934 -61.39365 5980 ft 272 kts 13°
2026-05-08 18:33 16.28835 -61.39468 6807 ft 280 kts 346°
2026-05-08 18:33 16.30658 -61.40219 7637 ft 283 kts 336°
2026-05-08 18:33 16.32427 -61.41127 8462 ft 284 kts 335°
2026-05-08 18:33 16.34200 -61.42046 9274 ft 285 kts 335°
2026-05-08 18:34 16.35984 -61.42962 10055 ft 286 kts 337°
2026-05-08 18:34 16.37862 -61.43727 10363 ft 305 kts 342°
2026-05-08 18:34 16.39966 -61.44392 10544 ft 325 kts 345°
2026-05-08 18:34 16.42179 -61.45008 11060 ft 332 kts 346°
2026-05-08 18:35 16.44431 -61.45623 11678 ft 337 kts 346°
2026-05-08 18:35 16.46712 -61.46260 12313 ft 341 kts 346°
2026-05-08 18:35 16.49000 -61.46956 12952 ft 345 kts 340°
2026-05-08 18:35 16.51112 -61.48183 13535 ft 352 kts 323°
2026-05-08 18:36 16.52791 -61.50068 14053 ft 360 kts 305°
2026-05-08 18:36 16.53842 -61.52447 14544 ft 367 kts 287°
2026-05-08 18:36 16.54172 -61.55104 15034 ft 373 kts 274°
2026-05-08 18:36 16.54273 -61.57819 15544 ft 376 kts 274°
2026-05-08 18:37 16.54373 -61.60558 16046 ft 380 kts 274°
2026-05-08 18:37 16.54474 -61.63320 16551 ft 383 kts 274°
2026-05-08 18:37 16.54577 -61.66067 17029 ft 386 kts 274°
2026-05-08 18:37 16.54684 -61.68874 17531 ft 389 kts 274°
2026-05-08 18:38 16.54793 -61.71707 18016 ft 392 kts 274°
2026-05-08 18:38 16.54901 -61.74560 18457 ft 396 kts 274°
2026-05-08 18:38 16.55011 -61.77439 18853 ft 399 kts 274°
2026-05-08 18:38 16.55122 -61.80343 19247 ft 403 kts 274°
2026-05-08 18:39 16.55232 -61.83274 19640 ft 406 kts 274°
2026-05-08 18:39 16.55342 -61.86233 20034 ft 410 kts 274°
2026-05-08 18:39 16.55451 -61.89219 20425 ft 413 kts 274°
2026-05-08 18:39 16.55561 -61.92228 20806 ft 417 kts 274°
2026-05-08 18:40 16.55674 -61.95256 21190 ft 420 kts 274°
2026-05-08 18:40 16.55789 -61.98314 21571 ft 424 kts 274°
2026-05-08 18:40 16.55903 -62.01393 21954 ft 427 kts 274°
2026-05-08 18:40 16.56018 -62.04499 22334 ft 430 kts 274°
2026-05-08 18:41 16.56132 -62.07624 22709 ft 433 kts 274°
2026-05-08 18:41 16.56244 -62.10777 23090 ft 437 kts 274°
2026-05-08 18:41 16.56380 -62.13948 23455 ft 439 kts 277°
2026-05-08 18:41 16.56883 -62.17080 23775 ft 438 kts 288°
2026-05-08 18:42 16.57873 -62.20072 24092 ft 437 kts 297°
2026-05-08 18:42 16.59216 -62.22911 24426 ft 437 kts 300°
2026-05-08 18:42 16.60585 -62.25746 24775 ft 439 kts 300°
2026-05-08 18:42 16.61954 -62.28593 25115 ft 440 kts 300°
2026-05-08 18:43 16.63323 -62.31457 25456 ft 442 kts 300°
2026-05-08 18:43 16.64688 -62.34328 25791 ft 443 kts 300°
2026-05-08 18:43 16.66062 -62.37220 26120 ft 445 kts 300°
2026-05-08 18:43 16.67437 -62.40114 26446 ft 447 kts 300°
2026-05-08 18:44 16.68818 -62.43021 26770 ft 448 kts 300°
2026-05-08 18:44 16.70210 -62.45939 27089 ft 450 kts 301°
2026-05-08 18:44 16.71590 -62.48827 27388 ft 451 kts 301°
2026-05-08 18:44 16.73002 -62.51782 27715 ft 453 kts 301°
2026-05-08 18:45 16.74406 -62.54722 28033 ft 455 kts 301°
2026-05-08 18:45 16.75811 -62.57672 28344 ft 457 kts 301°
2026-05-08 18:45 16.77229 -62.60655 28659 ft 458 kts 301°
2026-05-08 18:45 16.78647 -62.63643 28969 ft 460 kts 301°
2026-05-08 18:46 16.80065 -62.66628 29270 ft 462 kts 301°
2026-05-08 18:46 16.81504 -62.69653 29566 ft 463 kts 301°
2026-05-08 18:46 16.82942 -62.72672 29853 ft 465 kts 301°
2026-05-08 18:46 16.84374 -62.75680 30111 ft 466 kts 301°
2026-05-08 18:47 16.85821 -62.78724 30349 ft 468 kts 301°
2026-05-08 18:47 16.87273 -62.81785 30599 ft 469 kts 301°
2026-05-08 18:47 16.88715 -62.84825 30862 ft 469 kts 301°
2026-05-08 18:47 16.90163 -62.87883 31218 ft 467 kts 301°
2026-05-08 18:48 16.91592 -62.90906 31596 ft 464 kts 301°
2026-05-08 18:48 16.93004 -62.93896 31960 ft 462 kts 301°
2026-05-08 18:48 16.94435 -62.96925 32328 ft 460 kts 301°
2026-05-08 18:48 16.95842 -62.99907 32679 ft 458 kts 301°
2026-05-08 18:49 16.97208 -63.02878 33032 ft 457 kts 300°
2026-05-08 18:49 16.98548 -63.05914 33387 ft 456 kts 299°
2026-05-08 18:49 16.99845 -63.08941 33739 ft 455 kts 298°
2026-05-08 18:49 17.01113 -63.11939 34073 ft 453 kts 298°
2026-05-08 18:50 17.02393 -63.14955 34360 ft 452 kts 298°
2026-05-08 18:50 17.03661 -63.17924 34619 ft 451 kts 299°
2026-05-08 18:50 17.04953 -63.20931 34865 ft 450 kts 299°
2026-05-08 18:50 17.06241 -63.23907 35105 ft 449 kts 299°
2026-05-08 18:51 17.07523 -63.26863 35339 ft 449 kts 299°
2026-05-08 18:51 17.08815 -63.29840 35575 ft 448 kts 299°
2026-05-08 18:51 17.10094 -63.32786 35799 ft 447 kts 299°
2026-05-08 18:51 17.11390 -63.35768 35960 ft 447 kts 299°
2026-05-08 18:52 17.13949 -63.41664 36001 ft 443 kts 299°
2026-05-08 18:52 17.16475 -63.47531 36004 ft 442 kts 298°
2026-05-08 18:53 17.18984 -63.53360 36004 ft 442 kts 298°
2026-05-08 18:53 17.21512 -63.59240 36004 ft 441 kts 298°
2026-05-08 18:54 17.24030 -63.65100 36006 ft 441 kts 298°
2026-05-08 18:54 17.26534 -63.70922 36008 ft 441 kts 298°
2026-05-08 18:55 17.30307 -63.79710 36011 ft 441 kts 298°
2026-05-08 18:56 17.32824 -63.85565 36008 ft 441 kts 298°
2026-05-08 18:56 17.35333 -63.91420 36009 ft 441 kts 298°
2026-05-08 18:57 17.37429 -63.96331 36008 ft 441 kts 298°
2026-05-08 18:57 17.39916 -64.02144 36008 ft 441 kts 298°
2026-05-08 18:58 17.42416 -64.08004 36006 ft 440 kts 298°
2026-05-08 18:58 17.44914 -64.13859 36010 ft 440 kts 298°
2026-05-08 18:59 17.47411 -64.19715 36015 ft 440 kts 298°
2026-05-08 18:59 17.49909 -64.25570 36017 ft 440 kts 298°
2026-05-08 19:00 17.52404 -64.31436 36019 ft 440 kts 298°
2026-05-08 19:00 17.54895 -64.37290 36020 ft 440 kts 298°
2026-05-08 19:01 17.57409 -64.43156 36011 ft 438 kts 301°
2026-05-08 19:01 17.60689 -64.48420 36014 ft 433 kts 309°
2026-05-08 19:02 17.64169 -64.53578 36019 ft 433 kts 309°
2026-05-08 19:02 17.67642 -64.58751 36020 ft 433 kts 309°
2026-05-08 19:03 17.71099 -64.63900 36023 ft 433 kts 309°
2026-05-08 19:03 17.74558 -64.69058 36028 ft 433 kts 309°
2026-05-08 19:04 17.78036 -64.74252 36029 ft 433 kts 309°
2026-05-08 19:04 17.81489 -64.79406 36028 ft 433 kts 309°
2026-05-08 19:05 17.84950 -64.84563 36032 ft 433 kts 309°
2026-05-08 19:05 17.88427 -64.89761 36028 ft 433 kts 309°
2026-05-08 19:06 17.91897 -64.94956 36021 ft 433 kts 309°
2026-05-08 19:06 17.95333 -65.00107 36017 ft 433 kts 309°
2026-05-08 19:07 17.98781 -65.05278 36013 ft 433 kts 309°
2026-05-08 19:07 18.02236 -65.10456 36011 ft 433 kts 308°
2026-05-08 19:08 18.05681 -65.15635 36014 ft 432 kts 308°
2026-05-08 19:08 18.09126 -65.20822 36009 ft 432 kts 308°
2026-05-08 19:09 18.12582 -65.26017 36006 ft 432 kts 308°
2026-05-08 19:09 18.16011 -65.31170 36006 ft 432 kts 308°
2026-05-08 19:10 18.19471 -65.36378 36004 ft 432 kts 308°
2026-05-08 19:10 18.22903 -65.41550 36006 ft 432 kts 308°
2026-05-08 19:11 18.26345 -65.46746 36010 ft 432 kts 308°
2026-05-08 19:11 18.29779 -65.51933 36014 ft 432 kts 308°
2026-05-08 19:12 18.33215 -65.57118 36014 ft 433 kts 308°
2026-05-08 19:12 18.36656 -65.62320 36016 ft 433 kts 308°
2026-05-08 19:13 18.40087 -65.67528 36024 ft 433 kts 308°
2026-05-08 19:13 18.43525 -65.72735 36031 ft 433 kts 308°
2026-05-08 19:14 18.46954 -65.77926 36032 ft 433 kts 308°
2026-05-08 19:14 18.50404 -65.83153 36043 ft 433 kts 308°
2026-05-08 19:15 18.53842 -65.88382 36035 ft 433 kts 308°
2026-05-08 19:15 18.57247 -65.93563 36033 ft 433 kts 308°
2026-05-08 19:16 18.60693 -65.98795 36027 ft 432 kts 308°
2026-05-08 19:16 18.64110 -66.03988 36017 ft 432 kts 308°
2026-05-08 19:17 18.67532 -66.09205 36013 ft 432 kts 308°
2026-05-08 19:17 18.70950 -66.14420 36015 ft 431 kts 308°
2026-05-08 19:18 18.74365 -66.19616 36003 ft 432 kts 308°
2026-05-08 19:18 18.77767 -66.24818 36012 ft 432 kts 307°
2026-05-08 19:19 18.81180 -66.30040 36004 ft 432 kts 307°
2026-05-08 19:19 18.84578 -66.35234 36011 ft 431 kts 307°
2026-05-08 19:20 18.87998 -66.40463 36009 ft 431 kts 307°
2026-05-08 19:20 18.91396 -66.45666 36001 ft 431 kts 307°
2026-05-08 19:21 18.94783 -66.50882 36004 ft 431 kts 307°
2026-05-08 19:21 18.98182 -66.56125 36003 ft 431 kts 307°
2026-05-08 19:22 19.01568 -66.61342 36006 ft 430 kts 307°
2026-05-08 19:22 19.04943 -66.66552 36007 ft 430 kts 307°
2026-05-08 19:23 19.08319 -66.71761 36005 ft 430 kts 307°
2026-05-08 19:23 19.11676 -66.76949 36007 ft 430 kts 307°
2026-05-08 19:24 19.15059 -66.82192 36016 ft 430 kts 307°
2026-05-08 19:24 19.18419 -66.87400 36007 ft 430 kts 307°
2026-05-08 19:25 19.21788 -66.92619 36009 ft 430 kts 307°
2026-05-08 19:25 19.25159 -66.97848 36014 ft 430 kts 307°
2026-05-08 19:26 19.28526 -67.03061 36012 ft 430 kts 307°
2026-05-08 19:26 19.31899 -67.08303 36016 ft 430 kts 307°
2026-05-08 19:27 19.35262 -67.13542 36019 ft 430 kts 307°
2026-05-08 19:27 19.38620 -67.18760 36024 ft 430 kts 307°
2026-05-08 19:28 19.41986 -67.23998 36029 ft 430 kts 306°
2026-05-08 19:28 19.45339 -67.29230 36028 ft 429 kts 306°
2026-05-08 19:29 19.48686 -67.34460 36024 ft 429 kts 306°
2026-05-08 19:29 19.52029 -67.39665 36026 ft 429 kts 306°
2026-05-08 19:30 19.55380 -67.44892 36027 ft 429 kts 306°
2026-05-08 19:30 19.58709 -67.50112 36030 ft 428 kts 306°
2026-05-08 19:31 19.62047 -67.55343 36030 ft 428 kts 306°
2026-05-08 19:31 19.65385 -67.60574 36030 ft 428 kts 306°
2026-05-08 19:32 19.68736 -67.65826 36032 ft 428 kts 306°
2026-05-08 19:32 19.72067 -67.71055 36030 ft 428 kts 306°
2026-05-08 19:33 19.75383 -67.76271 36031 ft 428 kts 306°
2026-05-08 19:33 19.78729 -67.81533 36033 ft 428 kts 306°
2026-05-08 19:34 19.82045 -67.86762 36034 ft 428 kts 306°
2026-05-08 19:34 19.85376 -67.92006 36039 ft 428 kts 306°
2026-05-08 19:35 19.88702 -67.97256 36036 ft 429 kts 306°
2026-05-08 19:35 19.92036 -68.02524 36036 ft 429 kts 306°
2026-05-08 19:36 19.95378 -68.07798 36037 ft 429 kts 306°
2026-05-08 19:36 19.98700 -68.13039 36038 ft 429 kts 306°
2026-05-08 19:37 20.02033 -68.18318 36041 ft 429 kts 306°
2026-05-08 19:37 20.05345 -68.23571 36039 ft 429 kts 306°
2026-05-08 19:38 20.08663 -68.28826 36042 ft 429 kts 306°
2026-05-08 19:38 20.11973 -68.34070 36042 ft 429 kts 306°
2026-05-08 19:39 20.15307 -68.39370 36041 ft 428 kts 306°
2026-05-08 19:39 20.18604 -68.44613 36039 ft 428 kts 306°
2026-05-08 19:40 20.21929 -68.49905 36038 ft 428 kts 306°
2026-05-08 19:40 20.25236 -68.55179 36036 ft 428 kts 305°
2026-05-08 19:41 20.28357 -68.60580 36033 ft 429 kts 302°
2026-05-08 19:41 20.31299 -68.66110 36037 ft 430 kts 301°
2026-05-08 19:42 20.34250 -68.71673 36033 ft 430 kts 302°
2026-05-08 19:42 20.37230 -68.77172 36031 ft 429 kts 302°
2026-05-08 19:43 20.39734 -68.81752 36029 ft 429 kts 302°
2026-05-08 19:43 20.42738 -68.87266 36028 ft 430 kts 302°
2026-05-08 19:44 20.46222 -68.93672 36029 ft 429 kts 302°
2026-05-08 19:44 20.49207 -68.99178 36028 ft 429 kts 302°
2026-05-08 19:45 20.51701 -69.03779 36024 ft 429 kts 302°
2026-05-08 19:45 20.54699 -69.09313 36028 ft 430 kts 302°
2026-05-08 19:46 20.57681 -69.14821 36022 ft 430 kts 301°
2026-05-08 19:46 20.62150 -69.23104 36018 ft 430 kts 301°
2026-05-08 19:47 20.65140 -69.28644 36017 ft 430 kts 301°
2026-05-08 19:47 20.68132 -69.34184 36014 ft 430 kts 301°
2026-05-08 19:48 20.71099 -69.39693 36015 ft 430 kts 301°
2026-05-08 19:48 20.74087 -69.45256 36021 ft 430 kts 301°
2026-05-08 19:49 20.77062 -69.50798 36024 ft 431 kts 301°
2026-05-08 19:49 20.80053 -69.56356 36023 ft 431 kts 301°
2026-05-08 19:50 20.83036 -69.61907 36026 ft 431 kts 301°
2026-05-08 19:50 20.85994 -69.67448 36025 ft 431 kts 301°
2026-05-08 19:51 20.88979 -69.73010 36026 ft 431 kts 301°
2026-05-08 19:51 20.91970 -69.78600 36028 ft 431 kts 301°
2026-05-08 19:52 20.94947 -69.84184 36029 ft 431 kts 301°
2026-05-08 19:52 20.97922 -69.89748 36033 ft 432 kts 301°
2026-05-08 19:53 21.00899 -69.95329 36029 ft 432 kts 301°
2026-05-08 19:53 21.03875 -70.00910 36030 ft 432 kts 301°
2026-05-08 19:54 21.06830 -70.06464 36033 ft 432 kts 301°
2026-05-08 19:54 21.09800 -70.12049 36033 ft 432 kts 301°
2026-05-08 19:55 21.12783 -70.17671 36035 ft 432 kts 300°
2026-05-08 19:55 21.15751 -70.23263 36033 ft 432 kts 301°
2026-05-08 19:56 21.18702 -70.28833 36035 ft 432 kts 300°
2026-05-08 19:56 21.21665 -70.34445 36032 ft 432 kts 300°
2026-05-08 19:57 21.24625 -70.40043 36032 ft 432 kts 300°
2026-05-08 19:57 21.27576 -70.45635 36034 ft 431 kts 300°
2026-05-08 19:58 21.30533 -70.51228 36034 ft 431 kts 300°
2026-05-08 19:58 21.33481 -70.56810 36032 ft 431 kts 300°
2026-05-08 19:59 21.36447 -70.62437 36028 ft 431 kts 300°
2026-05-08 19:59 21.39383 -70.68022 36027 ft 431 kts 300°
2026-05-08 20:00 21.42325 -70.73617 36024 ft 431 kts 300°
2026-05-08 20:00 21.45276 -70.79231 36025 ft 431 kts 300°
2026-05-08 20:01 21.48214 -70.84831 36019 ft 431 kts 300°
2026-05-08 20:01 21.51147 -70.90418 36023 ft 430 kts 300°
2026-05-08 20:02 21.54078 -70.96021 36026 ft 430 kts 300°
2026-05-08 20:02 21.57017 -71.01644 36029 ft 431 kts 300°
2026-05-08 20:03 21.59879 -71.07263 36027 ft 431 kts 298°
2026-05-08 20:03 21.62636 -71.12982 36028 ft 431 kts 298°
2026-05-08 20:04 21.65386 -71.18727 36028 ft 431 kts 298°
2026-05-08 20:04 21.68146 -71.24424 36028 ft 431 kts 298°
2026-05-08 20:05 21.70927 -71.30137 36024 ft 431 kts 298°
2026-05-08 20:05 21.73715 -71.35873 36022 ft 431 kts 298°
2026-05-08 20:07 21.82199 -71.53384 36025 ft 431 kts 298°
2026-05-08 20:07 21.84971 -71.59111 36026 ft 431 kts 298°
2026-05-08 20:08 21.87736 -71.64846 36027 ft 431 kts 298°
2026-05-08 20:08 21.90494 -71.70583 36028 ft 432 kts 298°
2026-05-08 20:09 21.93241 -71.76288 36029 ft 432 kts 298°
2026-05-08 20:09 21.96008 -71.82029 36029 ft 432 kts 298°
2026-05-08 20:10 21.98766 -71.87775 36029 ft 432 kts 298°
2026-05-08 20:10 22.01521 -71.93523 36026 ft 432 kts 298°
2026-05-08 20:11 22.04280 -71.99268 36035 ft 432 kts 298°
2026-05-08 20:11 22.07037 -72.05025 36029 ft 431 kts 298°
2026-05-08 20:12 22.09788 -72.10776 36031 ft 431 kts 298°
2026-05-08 20:12 22.12534 -72.16526 36032 ft 431 kts 298°
2026-05-08 20:13 22.14817 -72.21313 36034 ft 431 kts 298°
2026-05-08 20:13 22.18018 -72.28039 36038 ft 431 kts 298°
2026-05-08 20:14 22.20742 -72.33753 36036 ft 431 kts 298°
2026-05-08 20:14 22.23039 -72.38575 36035 ft 431 kts 298°
2026-05-08 20:15 22.25770 -72.44326 36037 ft 431 kts 298°
2026-05-08 20:15 22.28510 -72.50109 36026 ft 441 kts 298°
2026-05-08 20:16 22.31348 -72.56085 36025 ft 452 kts 298°
2026-05-08 20:16 22.34239 -72.62185 36025 ft 459 kts 298°
2026-05-08 20:17 22.37146 -72.68340 36025 ft 460 kts 298°
2026-05-08 20:17 22.40056 -72.74494 36026 ft 460 kts 298°
2026-05-08 20:18 22.42958 -72.80659 36022 ft 460 kts 297°
2026-05-08 20:18 22.45855 -72.86835 36023 ft 460 kts 298°
2026-05-08 20:19 22.48760 -72.92998 36026 ft 460 kts 298°
2026-05-08 20:19 22.51666 -72.99164 36031 ft 460 kts 298°
2026-05-08 20:20 22.54559 -73.05342 36035 ft 460 kts 297°
2026-05-08 20:20 22.57451 -73.11516 36035 ft 460 kts 297°
2026-05-08 20:21 22.60338 -73.17684 36032 ft 459 kts 297°
2026-05-08 20:21 22.63211 -73.23847 36033 ft 459 kts 297°
2026-05-08 20:22 22.66094 -73.30023 36033 ft 459 kts 297°
2026-05-08 20:22 22.68978 -73.36194 36039 ft 460 kts 297°
2026-05-08 20:23 22.71857 -73.42379 36043 ft 460 kts 297°
2026-05-08 20:23 22.74731 -73.48564 36042 ft 459 kts 297°
2026-05-08 20:24 22.77584 -73.54706 36040 ft 459 kts 297°
2026-05-08 20:24 22.80442 -73.60882 36037 ft 458 kts 297°
2026-05-08 20:25 22.83300 -73.67045 36033 ft 458 kts 297°
2026-05-08 20:25 22.86161 -73.73212 36032 ft 457 kts 297°
2026-05-08 20:26 22.89009 -73.79387 36030 ft 457 kts 297°
2026-05-08 20:26 22.91854 -73.85558 36031 ft 457 kts 297°
2026-05-08 20:27 22.94698 -73.91736 36032 ft 458 kts 297°
2026-05-08 20:27 22.97549 -73.97918 36048 ft 458 kts 297°
2026-05-08 20:28 23.00377 -74.04064 36036 ft 458 kts 297°
2026-05-08 20:28 23.03215 -74.10248 36043 ft 457 kts 297°
2026-05-08 20:29 23.06051 -74.16429 36037 ft 457 kts 297°
2026-05-08 20:29 23.08883 -74.22608 36036 ft 457 kts 297°
2026-05-08 20:30 23.11706 -74.28787 36032 ft 456 kts 297°
2026-05-08 20:30 23.14524 -74.34960 36035 ft 456 kts 297°
2026-05-08 20:31 23.17344 -74.41138 36039 ft 456 kts 297°
2026-05-08 20:31 23.20157 -74.47314 36036 ft 455 kts 297°
2026-05-08 20:32 23.22966 -74.53485 36034 ft 455 kts 297°
2026-05-08 20:32 23.25765 -74.59656 36027 ft 455 kts 297°
2026-05-08 20:33 23.28568 -74.65828 36027 ft 455 kts 297°
2026-05-08 20:33 23.31372 -74.71998 36024 ft 455 kts 297°
2026-05-08 20:34 23.34148 -74.78131 36023 ft 455 kts 297°
2026-05-08 20:35 23.38331 -74.87397 36021 ft 454 kts 297°
2026-05-08 20:35 23.40633 -74.93802 36017 ft 455 kts 289°
2026-05-08 20:36 23.42627 -75.00338 36012 ft 455 kts 289°
2026-05-08 20:36 23.44621 -75.06881 36013 ft 455 kts 289°
2026-05-08 20:37 23.46601 -75.13422 36011 ft 455 kts 289°
2026-05-08 20:37 23.48598 -75.19971 36014 ft 455 kts 289°
2026-05-08 20:38 23.50591 -75.26510 36015 ft 455 kts 289°
2026-05-08 20:38 23.52569 -75.33059 36017 ft 455 kts 289°
2026-05-08 20:39 23.54546 -75.39611 36017 ft 455 kts 289°
2026-05-08 20:39 23.56508 -75.46117 36022 ft 455 kts 289°
2026-05-08 20:40 23.58483 -75.52666 36022 ft 455 kts 289°
2026-05-08 20:40 23.60449 -75.59226 36021 ft 455 kts 289°
2026-05-08 20:41 23.62417 -75.65786 36027 ft 455 kts 289°
2026-05-08 20:41 23.64392 -75.72339 36030 ft 455 kts 289°
2026-05-08 20:42 23.66355 -75.78912 36030 ft 455 kts 289°
2026-05-08 20:42 23.68312 -75.85471 36034 ft 455 kts 289°
2026-05-08 20:43 23.70268 -75.92052 36032 ft 455 kts 288°
2026-05-08 20:43 23.72218 -75.98610 36035 ft 455 kts 288°
2026-05-08 20:44 23.74165 -76.05138 36038 ft 455 kts 288°
2026-05-08 20:44 23.76122 -76.11714 36034 ft 454 kts 288°
2026-05-08 20:45 23.78064 -76.18272 36035 ft 454 kts 288°
2026-05-08 20:45 23.80000 -76.24811 36031 ft 453 kts 288°
2026-05-08 20:46 23.81932 -76.31363 36029 ft 453 kts 288°
2026-05-08 20:46 23.83856 -76.37911 36029 ft 452 kts 288°
2026-05-08 20:47 23.85779 -76.44453 36028 ft 452 kts 288°
2026-05-08 20:47 23.87701 -76.50992 36021 ft 452 kts 288°
2026-05-08 20:48 23.89606 -76.57497 36022 ft 452 kts 288°
2026-05-08 20:48 23.91515 -76.64037 36022 ft 452 kts 288°
2026-05-08 20:49 23.93428 -76.70572 36029 ft 452 kts 288°
2026-05-08 20:49 23.95346 -76.77135 36025 ft 451 kts 288°
2026-05-08 20:50 23.97248 -76.83687 36026 ft 451 kts 288°
2026-05-08 20:50 23.99134 -76.90185 36025 ft 451 kts 288°
2026-05-08 20:51 24.01032 -76.96716 36033 ft 451 kts 288°
2026-05-08 20:51 24.02937 -77.03275 36035 ft 451 kts 288°
2026-05-08 20:52 24.04823 -77.09804 36021 ft 451 kts 288°
2026-05-08 20:52 24.06712 -77.16360 36031 ft 450 kts 288°
2026-05-08 20:53 24.08591 -77.22892 36021 ft 450 kts 288°
2026-05-08 20:53 24.10454 -77.29376 36018 ft 449 kts 288°
2026-05-08 20:54 24.12318 -77.35886 36020 ft 448 kts 288°
2026-05-08 20:54 24.14183 -77.42397 36021 ft 448 kts 288°
2026-05-08 20:55 24.16045 -77.48909 36024 ft 448 kts 288°
2026-05-08 20:55 24.17907 -77.55419 36018 ft 448 kts 288°
2026-05-08 20:56 24.19763 -77.61930 36030 ft 448 kts 287°
2026-05-08 20:56 24.21615 -77.68435 36020 ft 447 kts 287°
2026-05-08 20:57 24.23445 -77.74893 36016 ft 446 kts 287°
2026-05-08 20:57 24.25289 -77.81393 36014 ft 446 kts 287°
2026-05-08 20:58 24.27376 -77.87772 36011 ft 445 kts 297°
2026-05-08 20:58 24.30749 -77.93463 36010 ft 445 kts 303°
2026-05-08 20:59 24.34220 -77.99098 36008 ft 445 kts 303°
2026-05-08 20:59 24.37674 -78.04723 36008 ft 445 kts 303°
2026-05-08 21:00 24.41119 -78.10341 36009 ft 445 kts 303°
2026-05-08 21:00 24.44557 -78.15963 36008 ft 445 kts 303°
2026-05-08 21:01 24.48004 -78.21600 36009 ft 444 kts 303°
2026-05-08 21:01 24.51444 -78.27226 36013 ft 444 kts 303°
2026-05-08 21:02 24.54882 -78.32851 36018 ft 444 kts 302°
2026-05-08 21:02 24.58298 -78.38441 36015 ft 443 kts 302°
2026-05-08 21:03 24.61729 -78.44064 36014 ft 443 kts 302°
2026-05-08 21:03 24.65148 -78.49686 36018 ft 442 kts 302°
2026-05-08 21:04 24.67991 -78.54364 36011 ft 442 kts 302°
2026-05-08 21:04 24.71404 -78.59987 36020 ft 442 kts 302°
2026-05-08 21:05 24.75373 -78.66528 35738 ft 442 kts 302°
2026-05-08 21:05 24.77060 -78.69309 35446 ft 432 kts 302°
2026-05-08 21:05 24.78179 -78.71151 35285 ft 425 kts 302°
2026-05-08 21:05 24.79799 -78.73821 35052 ft 414 kts 302°
2026-05-08 21:06 24.81378 -78.76429 34819 ft 405 kts 302°
2026-05-08 21:06 24.82949 -78.79027 34592 ft 413 kts 302°
2026-05-08 21:06 24.84547 -78.81677 34342 ft 428 kts 302°
2026-05-08 21:06 24.86211 -78.84445 33770 ft 436 kts 302°
2026-05-08 21:07 24.87893 -78.87237 33172 ft 435 kts 302°
2026-05-08 21:07 24.89563 -78.89999 32629 ft 432 kts 302°
2026-05-08 21:07 24.91224 -78.92742 32071 ft 429 kts 302°
2026-05-08 21:07 24.92872 -78.95470 31521 ft 426 kts 302°
2026-05-08 21:08 24.94503 -78.98173 30975 ft 422 kts 302°
2026-05-08 21:08 24.96121 -79.00861 30458 ft 419 kts 302°
2026-05-08 21:08 24.97727 -79.03532 29915 ft 416 kts 302°
2026-05-08 21:08 24.99318 -79.06175 29385 ft 413 kts 302°
2026-05-08 21:09 25.00901 -79.08804 28891 ft 410 kts 302°
2026-05-08 21:09 25.02467 -79.11411 28424 ft 407 kts 301°
2026-05-08 21:09 25.04026 -79.14006 27945 ft 404 kts 301°
2026-05-08 21:09 25.05572 -79.16580 27453 ft 401 kts 301°
2026-05-08 21:10 25.07106 -79.19137 26976 ft 399 kts 301°
2026-05-08 21:10 25.08613 -79.21650 26481 ft 396 kts 301°
2026-05-08 21:10 25.10123 -79.24175 25986 ft 393 kts 301°
2026-05-08 21:10 25.11620 -79.26686 25468 ft 390 kts 301°
2026-05-08 21:11 25.13109 -79.29180 24959 ft 388 kts 301°
2026-05-08 21:11 25.14588 -79.31657 24433 ft 386 kts 301°
2026-05-08 21:11 25.16060 -79.34121 23902 ft 383 kts 301°
2026-05-08 21:11 25.17527 -79.36579 23340 ft 382 kts 301°
2026-05-08 21:12 25.18979 -79.39017 22787 ft 379 kts 301°
2026-05-08 21:12 25.20423 -79.41436 22285 ft 376 kts 301°
2026-05-08 21:12 25.21860 -79.43838 21780 ft 374 kts 302°
2026-05-08 21:12 25.23293 -79.46233 21283 ft 372 kts 302°
2026-05-08 21:13 25.24717 -79.48612 20797 ft 371 kts 302°
2026-05-08 21:13 25.26136 -79.50985 20317 ft 369 kts 302°
2026-05-08 21:13 25.27546 -79.53343 19832 ft 367 kts 302°
2026-05-08 21:13 25.28950 -79.55697 19353 ft 366 kts 302°
2026-05-08 21:14 25.30325 -79.58013 18885 ft 365 kts 302°
2026-05-08 21:14 25.31711 -79.60356 18419 ft 364 kts 302°
2026-05-08 21:14 25.33091 -79.62691 17905 ft 363 kts 302°
2026-05-08 21:14 25.34472 -79.65021 17455 ft 361 kts 302°
2026-05-08 21:15 25.35848 -79.67339 17005 ft 360 kts 302°
2026-05-08 21:15 25.37217 -79.69644 16552 ft 358 kts 302°
2026-05-08 21:15 25.38580 -79.71941 16108 ft 356 kts 302°
2026-05-08 21:15 25.39957 -79.74212 15757 ft 355 kts 303°
2026-05-08 21:16 25.41374 -79.76446 15473 ft 354 kts 304°
2026-05-08 21:16 25.42808 -79.78655 15161 ft 353 kts 304°
2026-05-08 21:16 25.44247 -79.80856 14858 ft 352 kts 305°
2026-05-08 21:16 25.45675 -79.83049 14549 ft 351 kts 304°
2026-05-08 21:17 25.47094 -79.85239 14256 ft 350 kts 304°
2026-05-08 21:17 25.48504 -79.87431 13953 ft 349 kts 304°
2026-05-08 21:17 25.49888 -79.89594 13512 ft 348 kts 304°
2026-05-08 21:17 25.51279 -79.91768 13167 ft 341 kts 304°
2026-05-08 21:18 25.52605 -79.93842 13018 ft 319 kts 304°
2026-05-08 21:18 25.53862 -79.95807 12581 ft 309 kts 303°
2026-05-08 21:18 25.55096 -79.97736 12049 ft 306 kts 303°
2026-05-08 21:18 25.56327 -79.99661 11652 ft 306 kts 303°
2026-05-08 21:19 25.57561 -80.01592 11300 ft 308 kts 303°
2026-05-08 21:19 25.58796 -80.03524 10928 ft 307 kts 303°
2026-05-08 21:19 25.60029 -80.05455 10581 ft 306 kts 303°
2026-05-08 21:19 25.61260 -80.07378 10233 ft 305 kts 303°
2026-05-08 21:20 25.62484 -80.09296 9881 ft 305 kts 303°
2026-05-08 21:20 25.63706 -80.11217 9503 ft 304 kts 303°
2026-05-08 21:20 25.64905 -80.13101 9156 ft 302 kts 303°
2026-05-08 21:20 25.65935 -80.15100 8839 ft 297 kts 293°
2026-05-08 21:21 25.66809 -80.17167 8579 ft 295 kts 293°
2026-05-08 21:21 25.67683 -80.19225 8313 ft 294 kts 293°
2026-05-08 21:21 25.68553 -80.21273 8046 ft 293 kts 293°
2026-05-08 21:21 25.69417 -80.23309 7752 ft 291 kts 293°
2026-05-08 21:22 25.70274 -80.25335 7458 ft 289 kts 294°
2026-05-08 21:22 25.70955 -80.27413 7164 ft 285 kts 281°
2026-05-08 21:22 25.71165 -80.29583 6881 ft 282 kts 268°
2026-05-08 21:22 25.71062 -80.31748 6594 ft 280 kts 266°
2026-05-08 21:23 25.70957 -80.33901 6312 ft 279 kts 266°
2026-05-08 21:23 25.70864 -80.36049 5939 ft 278 kts 268°
2026-05-08 21:23 25.70786 -80.38177 5630 ft 275 kts 268°
2026-05-08 21:23 25.70690 -80.40280 5371 ft 272 kts 267°
2026-05-08 21:24 25.70570 -80.42371 5128 ft 271 kts 266°
2026-05-08 21:24 25.70428 -80.44444 5004 ft 267 kts 266°
2026-05-08 21:24 25.70278 -80.46427 5003 ft 250 kts 265°
2026-05-08 21:24 25.70125 -80.48314 4820 ft 244 kts 265°
2026-05-08 21:25 25.69972 -80.50149 4575 ft 240 kts 265°
2026-05-08 21:25 25.69820 -80.51972 4328 ft 236 kts 265°
2026-05-08 21:25 25.69684 -80.53750 4080 ft 227 kts 269°
2026-05-08 21:25 25.70063 -80.55414 3833 ft 225 kts 303°
2026-05-08 21:26 25.71207 -80.56555 3597 ft 225 kts 337°
2026-05-08 21:26 25.72735 -80.56795 3360 ft 226 kts 11°
2026-05-08 21:26 25.74181 -80.56149 3120 ft 225 kts 30°
2026-05-08 21:26 25.75527 -80.55254 3014 ft 226 kts 32°
2026-05-08 21:27 25.76742 -80.54168 3007 ft 225 kts 51°
2026-05-08 21:27 25.77521 -80.52695 3005 ft 219 kts 72°
2026-05-08 21:27 25.77779 -80.51054 3009 ft 216 kts 88°
2026-05-08 21:27 25.77847 -80.49408 3005 ft 207 kts 88°
2026-05-08 21:28 25.77914 -80.47862 2849 ft 194 kts 88°
2026-05-08 21:28 25.77976 -80.46407 2643 ft 184 kts 88°
2026-05-08 21:28 25.78036 -80.45008 2409 ft 180 kts 89°
2026-05-08 21:28 25.78095 -80.43641 2188 ft 176 kts 88°
2026-05-08 21:29 25.78152 -80.42304 1961 ft 172 kts 89°
2026-05-08 21:29 25.78208 -80.40984 1746 ft 169 kts 88°
2026-05-08 21:29 25.78262 -80.39723 1519 ft 158 kts 90°
2026-05-08 21:29 25.78312 -80.38551 1329 ft 148 kts 88°
2026-05-08 21:30 25.78360 -80.37410 1132 ft 148 kts 91°
2026-05-08 21:30 25.78407 -80.36298 950 ft 139 kts 92°
2026-05-08 21:30 25.78452 -80.35234 773 ft 139 kts 88°
2026-05-08 21:30 25.78495 -80.34178 618 ft 138 kts 91°
2026-05-08 21:31 25.78551 -80.33133 408 ft 135 kts 88°
2026-05-08 21:31 25.78587 -80.32098 213 ft 134 kts 88°
2026-05-08 21:31 25.78630 -80.31062 60 ft 134 kts 88°
2026-05-08 21:31 25.78667 -80.30099 19 ft 112 kts 86°
2026-05-08 21:32 25.78699 -80.29413 17 ft 64 kts 87°
2026-05-08 21:32 25.78717 -80.28993 17 ft 48 kts 87°
2026-05-08 21:32 25.78729 -80.28655 18 ft 41 kts 88°
2026-05-08 21:32 25.78746 -80.28356 18 ft 37 kts 86°
2026-05-08 21:33 25.78756 -80.28082 18 ft 35 kts 87°
2026-05-08 21:33 25.78768 -80.27823 19 ft 30 kts 90°
2026-05-08 21:33 25.78773 -80.27655 18 ft 20 kts 85°
2026-05-08 21:33 25.78822 -80.27551 19 ft 12 kts
2026-05-08 21:34 25.78845 -80.27552 19 ft 0 kts 357°
2026-05-08 21:35 25.78851 -80.27553 19 ft 6 kts 357°
2026-05-08 21:35 25.78912 -80.27497 19 ft 16 kts 72°
2026-05-08 21:36 25.78925 -80.27365 16 ft 19 kts 86°
2026-05-08 21:36 25.78941 -80.27233 15 ft 17 kts 57°
2026-05-08 21:36 25.79053 -80.27216 16 ft 17 kts 358°
2026-05-08 21:36 25.79174 -80.27222 17 ft 17 kts
2026-05-08 21:37 25.79245 -80.27260 16 ft 10 kts 279°
2026-05-08 21:37 25.79245 -80.27301 16 ft 2 kts 271°